| time (UTC) | temp F | wind direction | speed MPH | gust MPH | rain 1hr in | rain 24hr in | rain mn in | humidity % | barometer mb |
| 20260901161602 | 65 | 161 | 2.0 | 5.0 | 0.00 | 0.00 | 0.00 | 60 | 1016.3 |
| 20260901161101 | 65 | 208 | 0.0 | 4.0 | 0.00 | 0.00 | 0.00 | 60 | 1016.5 |
| 20260901160559 | 65 | 0 | 1.0 | 4.0 | 0.00 | 0.00 | 0.00 | 60 | 1016.5 |
| 20260901160107 | 65 | 0 | 1.0 | 4.0 | 0.00 | 0.00 | 0.00 | 61 | 1016.4 |
| 20260901155557 | 64 | 0 | 1.0 | 4.0 | 0.00 | 0.00 | 0.00 | 61 | 1016.4 |
| 20260901155057 | 64 | 0 | 0.0 | 4.0 | 0.00 | 0.00 | 0.00 | 61 | 1016.2 |
| 20260901154604 | 64 | 182 | 0.0 | 4.0 | 0.00 | 0.00 | 0.00 | 62 | 1016.2 |
| 20260901154056 | 64 | 238 | 0.0 | 4.0 | 0.00 | 0.00 | 0.00 | 62 | 1016.2 |
| 20260901153556 | 64 | 0 | 1.0 | 4.0 | 0.00 | 0.00 | 0.00 | 62 | 1016.2 |
| 20260901153104 | 63 | 0 | 1.0 | 4.0 | 0.00 | 0.00 | 0.00 | 63 | 1016.1 |
| 20260901152558 | 63 | 0 | 0.0 | 4.0 | 0.00 | 0.00 | 0.00 | 64 | 1016.0 |
| 20260901152056 | 63 | 130 | 1.0 | 4.0 | 0.00 | 0.00 | 0.00 | 64 | 1015.9 |
| 20260901151615 | 62 | 173 | 0.0 | 4.0 | 0.00 | 0.00 | 0.00 | 65 | 1015.9 |
| 20260901151056 | 62 | 151 | 1.0 | 4.0 | 0.00 | 0.00 | 0.00 | 65 | 1015.9 |
| 20260901150556 | 62 | 0 | 0.0 | 3.0 | 0.00 | 0.00 | 0.00 | 66 | 1016.0 |
| 20260901150113 | 62 | 214 | 0.0 | 3.0 | 0.00 | 0.00 | 0.00 | 67 | 1015.9 |
| 20260901145556 | 62 | 0 | 0.0 | 3.0 | 0.00 | 0.00 | 0.00 | 67 | 1015.9 |
| 20260901145146 | 62 | 161 | 0.0 | 3.0 | 0.00 | 0.00 | 0.00 | 67 | 1015.7 |
| 20260901145055 | 62 | 161 | 0.0 | 3.0 | 0.00 | 0.00 | 0.00 | 67 | 1015.7 |
| 20260901144607 | 61 | 231 | 0.0 | 4.0 | 0.00 | 0.00 | 0.00 | 67 | 1015.6 |
| 20260901144055 | 61 | 0 | 0.0 | 4.0 | 0.00 | 0.00 | 0.00 | 68 | 1015.6 |
| 20260901143558 | 61 | 0 | 0.0 | 2.0 | 0.00 | 0.00 | 0.00 | 68 | 1015.6 |
| 20260901143104 | 61 | 0 | 0.0 | 3.0 | 0.00 | 0.00 | 0.00 | 68 | 1015.4 |
| 20260901142558 | 61 | 185 | 0.0 | 4.0 | 0.00 | 0.00 | 0.00 | 68 | 1015.3 |
| 20260901142057 | 61 | 0 | 0.0 | 4.0 | 0.00 | 0.00 | 0.00 | 68 | 1015.2 |
| 20260901141607 | 61 | 176 | 0.0 | 4.0 | 0.00 | 0.00 | 0.00 | 68 | 1015.1 |
| 20260901141057 | 61 | 0 | 1.0 | 4.0 | 0.00 | 0.00 | 0.00 | 68 | 1015.0 |
| 20260901140556 | 61 | 178 | 0.0 | 4.0 | 0.00 | 0.00 | 0.00 | 68 | 1015.0 |
| 20260901140108 | 61 | 0 | 0.0 | 4.0 | 0.00 | 0.00 | 0.00 | 68 | 1014.9 |
| 20260901135556 | 61 | 140 | 0.0 | 5.0 | 0.00 | 0.00 | 0.00 | 68 | 1014.9 |
| 20260901135056 | 61 | 144 | 1.0 | 5.0 | 0.00 | 0.00 | 0.00 | 68 | 1014.7 |
| 20260901134625 | 60 | 0 | 0.0 | 3.0 | 0.00 | 0.00 | 0.00 | 68 | 1014.7 |
| 20260901134057 | 61 | 0 | 0.0 | 4.0 | 0.00 | 0.00 | 0.00 | 68 | 1014.7 |
| 20260901133634 | 60 | 0 | 0.0 | 4.0 | 0.00 | 0.00 | 0.00 | 68 | 1014.7 |
| 20260901133555 | 60 | 0 | 0.0 | 4.0 | 0.00 | 0.00 | 0.00 | 68 | 1014.7 |
| 20260901133112 | 60 | 133 | 0.0 | 3.0 | 0.00 | 0.00 | 0.00 | 68 | 1014.8 |
| 20260901132557 | 61 | 141 | 0.0 | 3.0 | 0.00 | 0.00 | 0.00 | 69 | 1014.6 |
| 20260901132057 | 61 | 0 | 0.0 | 3.0 | 0.00 | 0.00 | 0.00 | 69 | 1014.6 |
| 20260901131608 | 61 | 141 | 0.0 | 2.0 | 0.00 | 0.00 | 0.00 | 69 | 1014.6 |
| 20260901131057 | 61 | 0 | 0.0 | 3.0 | 0.00 | 0.00 | 0.00 | 69 | 1014.6 |
| 20260901130558 | 61 | 0 | 0.0 | 3.0 | 0.00 | 0.00 | 0.00 | 69 | 1014.5 |
| 20260901130103 | 60 | 0 | 0.0 | 2.0 | 0.00 | 0.00 | 0.00 | 69 | 1014.6 |
| 20260901125600 | 61 | 0 | 0.0 | 3.0 | 0.00 | 0.00 | 0.00 | 70 | 1014.6 |
| 20260901125101 | 60 | 0 | 0.0 | 4.0 | 0.00 | 0.00 | 0.00 | 70 | 1014.4 |
| 20260901124608 | 60 | 0 | 0.0 | 4.0 | 0.00 | 0.00 | 0.00 | 70 | 1014.4 |
| 20260901124059 | 61 | 0 | 0.0 | 6.0 | 0.00 | 0.00 | 0.00 | 70 | 1014.5 |
| 20260901123557 | 61 | 0 | 0.0 | 6.0 | 0.00 | 0.00 | 0.00 | 70 | 1014.5 |
| 20260901123102 | 61 | 0 | 0.0 | 1.0 | 0.00 | 0.00 | 0.00 | 70 | 1014.5 |
| 20260901122643 | 61 | 0 | 0.0 | 1.0 | 0.00 | 0.00 | 0.00 | 70 | 1014.5 |
| 20260901122556 | 61 | 0 | 0.0 | 1.0 | 0.00 | 0.00 | 0.00 | 70 | 1014.5 |
| 20260901122056 | 61 | 0 | 0.0 | 1.0 | 0.00 | 0.00 | 0.00 | 70 | 1014.5 |
| 20260901121603 | 61 | 0 | 0.0 | 1.0 | 0.00 | 0.00 | 0.00 | 70 | 1014.5 |
| 20260901121057 | 61 | 0 | 0.0 | 1.0 | 0.00 | 0.00 | 0.00 | 70 | 1014.5 |
| 20260901120600 | 61 | 0 | 0.0 | 1.0 | 0.00 | 0.00 | 0.00 | 70 | 1014.4 |
| 20260901120112 | 61 | 0 | 0.0 | 0.0 | 0.00 | 0.00 | 0.00 | 70 | 1014.4 |
| 20260901115556 | 61 | 0 | 0.0 | 1.0 | 0.00 | 0.00 | 0.00 | 70 | 1014.4 |
| 20260901115144 | 61 | 0 | 0.0 | 1.0 | 0.00 | 0.00 | 0.00 | 70 | 1014.4 |
| 20260901115100 | 61 | 0 | 0.0 | 1.0 | 0.00 | 0.00 | 0.00 | 70 | 1014.4 |
| 20260901114608 | 61 | 0 | 0.0 | 2.0 | 0.00 | 0.00 | 0.00 | 71 | 1014.4 |
| 20260901114055 | 61 | 0 | 0.0 | 4.0 | 0.00 | 0.00 | 0.00 | 71 | 1014.6 |
| 20260901113559 | 61 | 0 | 0.0 | 4.0 | 0.00 | 0.00 | 0.00 | 71 | 1014.7 |
| 20260901113108 | 61 | 256 | 0.0 | 4.0 | 0.00 | 0.00 | 0.00 | 71 | 1014.7 |
| 20260901112557 | 61 | 0 | 0.0 | 4.0 | 0.00 | 0.00 | 0.00 | 71 | 1014.7 |
| 20260901112057 | 61 | 279 | 0.0 | 4.0 | 0.00 | 0.00 | 0.00 | 70 | 1014.7 |
| 20260901111607 | 61 | 0 | 0.0 | 4.0 | 0.00 | 0.00 | 0.00 | 70 | 1014.7 |
| 20260901111057 | 61 | 243 | 0.0 | 4.0 | 0.00 | 0.00 | 0.00 | 70 | 1014.9 |
| 20260901110557 | 61 | 273 | 0.0 | 3.0 | 0.00 | 0.00 | 0.00 | 70 | 1014.8 |
| 20260901110106 | 61 | 0 | 0.0 | 3.0 | 0.00 | 0.00 | 0.00 | 71 | 1014.7 |
| 20260901105557 | 61 | 0 | 0.0 | 3.0 | 0.00 | 0.00 | 0.00 | 71 | 1014.7 |
| 20260901105229 | 61 | 0 | 0.0 | 3.0 | 0.00 | 0.00 | 0.00 | 71 | 1014.6 |
| 20260901104606 | 61 | 230 | 0.0 | 3.0 | 0.00 | 0.00 | 0.00 | 71 | 1014.7 |
| 20260901104157 | 61 | 0 | 0.0 | 2.0 | 0.00 | 0.00 | 0.00 | 72 | 1014.6 |
| 20260901104056 | 61 | 0 | 0.0 | 2.0 | 0.00 | 0.00 | 0.00 | 72 | 1014.6 |
| 20260901103557 | 61 | 0 | 0.0 | 3.0 | 0.00 | 0.00 | 0.00 | 72 | 1014.6 |
| 20260901103114 | 61 | 0 | 0.0 | 3.0 | 0.00 | 0.00 | 0.00 | 72 | 1014.6 |
| 20260901102556 | 61 | 0 | 0.0 | 3.0 | 0.00 | 0.00 | 0.00 | 72 | 1014.6 |
| 20260901102111 | 61 | 269 | 0.0 | 3.0 | 0.00 | 0.00 | 0.00 | 72 | 1014.5 |
| 20260901101610 | 61 | 260 | 0.0 | 3.0 | 0.00 | 0.00 | 0.00 | 72 | 1014.4 |
| 20260901101057 | 61 | 0 | 0.0 | 1.0 | 0.00 | 0.00 | 0.00 | 72 | 1014.4 |
| 20260901100558 | 61 | 0 | 0.0 | 1.0 | 0.00 | 0.00 | 0.00 | 72 | 1014.4 |
| 20260901100104 | 61 | 0 | 0.0 | 2.0 | 0.00 | 0.00 | 0.00 | 72 | 1014.4 |
| 20260901095556 | 61 | 0 | 0.0 | 2.0 | 0.00 | 0.00 | 0.00 | 72 | 1014.3 |
| 20260901095056 | 61 | 0 | 0.0 | 3.0 | 0.00 | 0.00 | 0.00 | 72 | 1014.4 |
| 20260901094840 | 61 | 0 | 0.0 | 3.0 | 0.00 | 0.00 | 0.00 | 72 | 1014.4 |
| 20260901094220 | 61 | 237 | 0.0 | 2.0 | 0.00 | 0.00 | 0.00 | 72 | 1014.3 |
| 20260901094059 | 61 | 237 | 0.0 | 2.0 | 0.00 | 0.00 | 0.00 | 72 | 1014.3 |
| 20260901093559 | 61 | 0 | 0.0 | 2.0 | 0.00 | 0.00 | 0.00 | 72 | 1014.3 |
| 20260901093103 | 61 | 0 | 0.0 | 4.0 | 0.00 | 0.00 | 0.00 | 72 | 1014.3 |
| 20260901092650 | 61 | 0 | 0.0 | 4.0 | 0.00 | 0.00 | 0.00 | 72 | 1014.4 |
| 20260901092615 | 61 | 0 | 0.0 | 4.0 | 0.00 | 0.00 | 0.00 | 72 | 1014.4 |
| 20260901092100 | 61 | 0 | 0.0 | 3.0 | 0.00 | 0.00 | 0.00 | 72 | 1014.4 |
| 20260901091606 | 61 | 0 | 0.0 | 3.0 | 0.00 | 0.00 | 0.00 | 72 | 1014.3 |
| 20260901091056 | 61 | 227 | 0.0 | 3.0 | 0.00 | 0.00 | 0.00 | 72 | 1014.4 |
| 20260901090644 | 61 | 270 | 0.0 | 3.0 | 0.00 | 0.00 | 0.00 | 72 | 1014.4 |
| 20260901090558 | 61 | 270 | 0.0 | 3.0 | 0.00 | 0.00 | 0.00 | 72 | 1014.4 |
| 20260901090107 | 61 | 0 | 0.0 | 3.0 | 0.00 | 0.00 | 0.00 | 72 | 1014.4 |
| 20260901085556 | 61 | 0 | 0.0 | 3.0 | 0.00 | 0.00 | 0.00 | 72 | 1014.3 |
| 20260901085059 | 61 | 0 | 0.0 | 1.0 | 0.00 | 0.00 | 0.00 | 72 | 1014.4 |
| 20260901084559 | 61 | 0 | 0.0 | 1.0 | 0.00 | 0.00 | 0.00 | 72 | 1014.3 |
| 20260901084056 | 61 | 0 | 0.0 | 1.0 | 0.00 | 0.00 | 0.00 | 72 | 1014.2 |
| 20260901083558 | 61 | 0 | 0.0 | 1.0 | 0.00 | 0.00 | 0.00 | 72 | 1014.3 |
| 20260901083109 | 61 | 0 | 0.0 | 2.0 | 0.00 | 0.00 | 0.00 | 72 | 1014.2 |
| 20260901082558 | 61 | 0 | 0.0 | 3.0 | 0.00 | 0.00 | 0.00 | 72 | 1014.4 |
| 20260901082101 | 61 | 275 | 0.0 | 3.0 | 0.00 | 0.00 | 0.00 | 72 | 1014.3 |
| 20260901081606 | 61 | 0 | 0.0 | 3.0 | 0.00 | 0.00 | 0.00 | 72 | 1014.3 |
| 20260901081057 | 61 | 0 | 0.0 | 4.0 | 0.00 | 0.00 | 0.00 | 72 | 1014.4 |
| 20260901080556 | 61 | 0 | 0.0 | 4.0 | 0.00 | 0.00 | 0.00 | 72 | 1014.4 |
| 20260901080118 | 61 | 0 | 0.0 | 4.0 | 0.00 | 0.00 | 0.00 | 72 | 1014.5 |
| 20260901075557 | 61 | 0 | 0.0 | 4.0 | 0.00 | 0.00 | 0.00 | 72 | 1014.3 |
| 20260901075057 | 61 | 0 | 0.0 | 4.0 | 0.00 | 0.00 | 0.00 | 72 | 1014.2 |
| 20260901074602 | 61 | 0 | 0.0 | 4.0 | 0.00 | 0.00 | 0.00 | 72 | 1014.2 |
| 20260901074100 | 61 | 0 | 1.0 | 4.0 | 0.00 | 0.00 | 0.00 | 72 | 1014.2 |
| 20260901073556 | 61 | 261 | 0.0 | 4.0 | 0.00 | 0.00 | 0.00 | 72 | 1014.2 |
| 20260901073114 | 61 | 0 | 0.0 | 3.0 | 0.00 | 0.00 | 0.00 | 72 | 1014.3 |
| 20260901072556 | 61 | 196 | 1.0 | 4.0 | 0.00 | 0.00 | 0.00 | 72 | 1014.3 |
| 20260901072106 | 61 | 306 | 0.0 | 6.0 | 0.00 | 0.00 | 0.00 | 72 | 1014.3 |
| 20260901071602 | 61 | 276 | 1.0 | 6.0 | 0.00 | 0.00 | 0.00 | 72 | 1014.2 |
| 20260901071055 | 61 | 243 | 1.0 | 6.0 | 0.00 | 0.00 | 0.00 | 72 | 1014.2 |
| 20260901070557 | 61 | 345 | 1.0 | 4.0 | 0.00 | 0.00 | 0.00 | 72 | 1014.2 |
| 20260901070107 | 61 | 284 | 0.0 | 6.0 | 0.00 | 0.00 | 0.00 | 72 | 1014.3 |
| 20260901065557 | 61 | 0 | 1.0 | 6.0 | 0.00 | 0.00 | 0.00 | 72 | 1014.3 |
| 20260901065058 | 61 | 320 | 0.0 | 2.0 | 0.00 | 0.00 | 0.00 | 72 | 1014.2 |
| 20260901064611 | 61 | 0 | 0.0 | 5.0 | 0.00 | 0.00 | 0.00 | 72 | 1014.3 |
| 20260901064130 | 61 | 0 | 0.0 | 6.0 | 0.00 | 0.00 | 0.00 | 72 | 1014.4 |
| 20260901064057 | 61 | 0 | 0.0 | 6.0 | 0.00 | 0.00 | 0.00 | 72 | 1014.4 |
| 20260901063558 | 61 | 271 | 1.0 | 6.0 | 0.00 | 0.00 | 0.00 | 72 | 1014.4 |
| 20260901063104 | 61 | 263 | 0.0 | 4.0 | 0.00 | 0.00 | 0.00 | 72 | 1014.4 |
| 20260901062557 | 61 | 282 | 0.0 | 4.0 | 0.00 | 0.00 | 0.00 | 72 | 1014.5 |
| 20260901062154 | 61 | 0 | 0.0 | 3.0 | 0.00 | 0.00 | 0.00 | 72 | 1014.6 |
| 20260901062056 | 61 | 0 | 0.0 | 3.0 | 0.00 | 0.00 | 0.00 | 72 | 1014.6 |
| 20260901061603 | 61 | 0 | 0.0 | 7.0 | 0.00 | 0.00 | 0.00 | 73 | 1014.6 |
| 20260901061056 | 61 | 252 | 2.0 | 7.0 | 0.00 | 0.00 | 0.00 | 73 | 1014.5 |
| 20260901060557 | 61 | 0 | 1.0 | 6.0 | 0.00 | 0.00 | 0.00 | 72 | 1014.5 |
| 20260901060117 | 61 | 227 | 1.0 | 3.0 | 0.00 | 0.00 | 0.00 | 73 | 1014.6 |
| 20260901055556 | 61 | 325 | 0.0 | 3.0 | 0.00 | 0.00 | 0.00 | 73 | 1014.7 |
| 20260901055056 | 61 | 263 | 0.0 | 3.0 | 0.00 | 0.00 | 0.00 | 73 | 1014.7 |
| 20260901054630 | 61 | 272 | 0.0 | 3.0 | 0.00 | 0.00 | 0.00 | 74 | 1014.7 |
| 20260901054104 | 61 | 0 | 0.0 | 3.0 | 0.00 | 0.00 | 0.00 | 74 | 1014.7 |
| 20260901053600 | 61 | 252 | 0.0 | 5.0 | 0.00 | 0.00 | 0.00 | 74 | 1014.6 |
| 20260901053127 | 60 | 0 | 0.0 | 5.0 | 0.00 | 0.00 | 0.00 | 75 | 1014.6 |
| 20260901052556 | 60 | 244 | 1.0 | 5.0 | 0.00 | 0.00 | 0.00 | 75 | 1014.5 |
| 20260901052100 | 60 | 313 | 1.0 | 5.0 | 0.00 | 0.00 | 0.00 | 75 | 1014.5 |
| 20260901051612 | 60 | 260 | 1.0 | 8.0 | 0.00 | 0.00 | 0.00 | 75 | 1014.6 |
| 20260901051100 | 60 | 225 | 0.0 | 8.0 | 0.00 | 0.00 | 0.00 | 75 | 1014.5 |
| 20260901050559 | 60 | 315 | 1.0 | 8.0 | 0.00 | 0.00 | 0.00 | 75 | 1014.4 |
| 20260901045558 | 60 | 316 | 0.0 | 4.0 | 0.00 | 0.00 | 0.00 | 75 | 1014.3 |
| 20260901045058 | 60 | 305 | 0.0 | 6.0 | 0.00 | 0.00 | 0.00 | 75 | 1014.2 |
| 20260901044610 | 60 | 325 | 1.0 | 6.0 | 0.00 | 0.00 | 0.00 | 74 | 1014.1 |
| 20260901044102 | 60 | 292 | 0.0 | 5.0 | 0.00 | 0.00 | 0.00 | 74 | 1014.0 |
| 20260901043557 | 60 | 255 | 0.0 | 4.0 | 0.00 | 0.00 | 0.00 | 74 | 1014.1 |
| 20260901043109 | 60 | 0 | 1.0 | 7.0 | 0.00 | 0.00 | 0.00 | 74 | 1014.1 |
| 20260901042559 | 61 | 0 | 2.0 | 8.0 | 0.00 | 0.00 | 0.00 | 74 | 1014.0 |
| 20260901042059 | 61 | 287 | 2.0 | 9.0 | 0.00 | 0.00 | 0.00 | 74 | 1014.1 |
| 20260901041649 | 61 | 248 | 4.0 | 9.0 | 0.00 | 0.00 | 0.00 | 74 | 1014.1 |
| 20260901041604 | 61 | 248 | 4.0 | 9.0 | 0.00 | 0.00 | 0.00 | 74 | 1014.1 |
| 20260901041057 | 61 | 283 | 0.0 | 9.0 | 0.00 | 0.00 | 0.00 | 75 | 1014.0 |
| 20260901040641 | 61 | 0 | 2.0 | 9.0 | 0.00 | 0.00 | 0.00 | 75 | 1013.9 |
| 20260901040558 | 61 | 0 | 2.0 | 9.0 | 0.00 | 0.00 | 0.00 | 75 | 1013.9 |
| 20260901040113 | 61 | 297 | 1.0 | 7.0 | 0.00 | 0.00 | 0.00 | 75 | 1013.9 |
| 20260901035600 | 61 | 0 | 2.0 | 7.0 | 0.00 | 0.00 | 0.00 | 75 | 1013.9 |
| 20260901035058 | 61 | 0 | 2.0 | 7.0 | 0.00 | 0.00 | 0.00 | 75 | 1013.8 |
| 20260901034612 | 61 | 281 | 2.0 | 7.0 | 0.00 | 0.00 | 0.00 | 75 | 1013.7 |
| 20260901034059 | 61 | 309 | 2.0 | 8.0 | 0.00 | 0.00 | 0.00 | 75 | 1013.7 |
| 20260901033557 | 62 | 266 | 3.0 | 8.0 | 0.00 | 0.00 | 0.00 | 74 | 1013.6 |
| 20260901033104 | 62 | 0 | 3.0 | 8.0 | 0.00 | 0.00 | 0.00 | 74 | 1013.7 |
| 20260901032558 | 62 | 0 | 2.0 | 9.0 | 0.00 | 0.00 | 0.00 | 73 | 1013.5 |
| 20260901032058 | 62 | 314 | 2.0 | 9.0 | 0.00 | 0.00 | 0.00 | 73 | 1013.5 |
| 20260901031601 | 62 | 304 | 2.0 | 9.0 | 0.00 | 0.00 | 0.00 | 73 | 1013.4 |
| 20260901031057 | 62 | 282 | 1.0 | 8.0 | 0.00 | 0.00 | 0.00 | 72 | 1013.4 |
| 20260901030559 | 63 | 302 | 2.0 | 9.0 | 0.00 | 0.00 | 0.00 | 72 | 1013.4 |
| 20260901025556 | 63 | 302 | 2.0 | 9.0 | 0.00 | 0.00 | 0.00 | 72 | 1013.1 |
| 20260901025057 | 63 | 288 | 2.0 | 9.0 | 0.00 | 0.00 | 0.00 | 71 | 1013.1 |
| 20260901024603 | 63 | 310 | 1.0 | 10.0 | 0.00 | 0.00 | 0.00 | 71 | 1013.2 |
| 20260901024058 | 63 | 287 | 3.0 | 10.0 | 0.00 | 0.00 | 0.00 | 70 | 1013.1 |
| 20260901023601 | 64 | 314 | 4.0 | 10.0 | 0.00 | 0.00 | 0.00 | 70 | 1013.1 |
| 20260901023108 | 64 | 307 | 2.0 | 9.0 | 0.00 | 0.00 | 0.00 | 70 | 1013.0 |
| 20260901022633 | 64 | 293 | 2.0 | 10.0 | 0.00 | 0.00 | 0.00 | 69 | 1013.2 |
| 20260901022556 | 64 | 293 | 2.0 | 10.0 | 0.00 | 0.00 | 0.00 | 69 | 1013.2 |
| 20260901022201 | 64 | 303 | 4.0 | 10.0 | 0.00 | 0.00 | 0.00 | 69 | 1013.0 |
| 20260901022059 | 64 | 303 | 4.0 | 10.0 | 0.00 | 0.00 | 0.00 | 69 | 1013.0 |
| 20260901021656 | 65 | 296 | 4.0 | 10.0 | 0.00 | 0.00 | 0.00 | 69 | 1013.1 |
| 20260901021604 | 65 | 296 | 4.0 | 10.0 | 0.00 | 0.00 | 0.00 | 69 | 1013.1 |
| 20260901021100 | 65 | 283 | 3.0 | 14.0 | 0.00 | 0.00 | 0.00 | 68 | 1013.1 |
| 20260901020556 | 65 | 317 | 3.0 | 14.0 | 0.00 | 0.00 | 0.00 | 68 | 1013.0 |
| 20260901020104 | 66 | 260 | 4.0 | 14.0 | 0.00 | 0.00 | 0.00 | 67 | 1013.0 |
| 20260901015638 | 66 | 334 | 3.0 | 12.0 | 0.00 | 0.00 | 0.00 | 66 | 1012.9 |
| 20260901015556 | 66 | 334 | 3.0 | 12.0 | 0.00 | 0.00 | 0.00 | 66 | 1012.9 |
| 20260901015056 | 66 | 248 | 3.0 | 12.0 | 0.00 | 0.00 | 0.00 | 66 | 1012.9 |
| 20260901014603 | 67 | 338 | 5.0 | 12.0 | 0.00 | 0.00 | 0.00 | 66 | 1012.9 |
| 20260901014058 | 67 | 321 | 3.0 | 12.0 | 0.00 | 0.00 | 0.00 | 66 | 1013.0 |
| 20260901013558 | 67 | 344 | 5.0 | 12.0 | 0.00 | 0.00 | 0.00 | 66 | 1012.9 |
| 20260901013100 | 67 | 325 | 5.0 | 12.0 | 0.00 | 0.00 | 0.00 | 65 | 1012.9 |
| 20260901012600 | 68 | 304 | 6.0 | 11.0 | 0.00 | 0.00 | 0.00 | 65 | 1012.9 |
| 20260901012056 | 68 | 303 | 4.0 | 12.0 | 0.00 | 0.00 | 0.00 | 64 | 1013.0 |
| 20260901011607 | 68 | 331 | 6.0 | 12.0 | 0.00 | 0.00 | 0.00 | 64 | 1013.1 |
| 20260901011056 | 68 | 311 | 5.0 | 11.0 | 0.00 | 0.00 | 0.00 | 64 | 1013.1 |
| 20260901010558 | 69 | 336 | 5.0 | 12.0 | 0.00 | 0.00 | 0.00 | 63 | 1013.2 |
| 20260901010105 | 69 | 336 | 5.0 | 14.0 | 0.00 | 0.00 | 0.00 | 63 | 1013.2 |
| 20260901005558 | 69 | 336 | 2.0 | 14.0 | 0.00 | 0.00 | 0.00 | 64 | 1013.1 |
| 20260901005058 | 68 | 352 | 7.0 | 14.0 | 0.00 | 0.00 | 0.00 | 64 | 1013.2 |
| 20260901004608 | 69 | 352 | 7.0 | 13.0 | 0.00 | 0.00 | 0.00 | 62 | 1013.0 |
| 20260901004100 | 69 | 325 | 5.0 | 13.0 | 0.00 | 0.00 | 0.00 | 63 | 1013.0 |
| 20260901003556 | 69 | 9 | 4.0 | 13.0 | 0.00 | 0.00 | 0.00 | 61 | 1013.0 |
| 20260901003136 | 69 | 332 | 7.0 | 13.0 | 0.00 | 0.00 | 0.00 | 61 | 1013.0 |
| 20260901003102 | 69 | 332 | 7.0 | 13.0 | 0.00 | 0.00 | 0.00 | 61 | 1013.0 |
| 20260901002704 | 70 | 334 | 5.0 | 12.0 | 0.00 | 0.00 | 0.00 | 61 | 1012.8 |
| 20260901002616 | 70 | 334 | 5.0 | 12.0 | 0.00 | 0.00 | 0.00 | 61 | 1012.8 |
| 20260901002058 | 70 | 274 | 4.0 | 14.0 | 0.00 | 0.00 | 0.00 | 62 | 1012.9 |
| 20260901001602 | 70 | 305 | 6.0 | 14.0 | 0.00 | 0.00 | 0.00 | 62 | 1012.9 |
| 20260901001056 | 70 | 311 | 6.0 | 14.0 | 0.00 | 0.00 | 0.00 | 61 | 1012.8 |
| 20260901000658 | 70 | 303 | 5.0 | 12.0 | 0.00 | 0.00 | 0.00 | 61 | 1012.9 |
| 20260901000558 | 70 | 303 | 5.0 | 12.0 | 0.00 | 0.00 | 0.00 | 61 | 1012.9 |
| 20260901000105 | 70 | 307 | 6.0 | 14.0 | 0.00 | 0.00 | 0.00 | 61 | 1013.1 |
| 20260831235557 | 70 | 314 | 6.0 | 14.0 | 0.00 | 0.00 | 0.00 | 61 | 1013.1 |
| 20260831235056 | 70 | 352 | 6.0 | 13.0 | 0.00 | 0.00 | 0.00 | 62 | 1013.1 |
| 20260831234559 | 70 | 318 | 7.0 | 15.0 | 0.00 | 0.00 | 0.00 | 61 | 1013.1 |
| 20260831234142 | 70 | 329 | 7.0 | 15.0 | 0.00 | 0.00 | 0.00 | 61 | 1013.0 |
| 20260831234058 | 70 | 329 | 7.0 | 15.0 | 0.00 | 0.00 | 0.00 | 61 | 1013.0 |
| 20260831233557 | 71 | 5 | 5.0 | 13.0 | 0.00 | 0.00 | 0.00 | 61 | 1013.2 |
| 20260831233203 | 70 | 325 | 5.0 | 16.0 | 0.00 | 0.00 | 0.00 | 62 | 1013.0 |
| 20260831233103 | 70 | 325 | 5.0 | 16.0 | 0.00 | 0.00 | 0.00 | 62 | 1013.0 |
| 20260831232558 | 70 | 293 | 7.0 | 16.0 | 0.00 | 0.00 | 0.00 | 62 | 1013.2 |
| 20260831232057 | 70 | 23 | 6.0 | 14.0 | 0.00 | 0.00 | 0.00 | 62 | 1013.2 |
| 20260831231604 | 70 | 344 | 6.0 | 14.0 | 0.00 | 0.00 | 0.00 | 63 | 1013.1 |
| 20260831231058 | 71 | 321 | 5.0 | 13.0 | 0.00 | 0.00 | 0.00 | 62 | 1013.2 |
| 20260831230557 | 71 | 360 | 8.0 | 14.0 | 0.00 | 0.00 | 0.00 | 61 | 1013.3 |
| 20260831230114 | 71 | 313 | 6.0 | 16.0 | 0.00 | 0.00 | 0.00 | 61 | 1013.3 |
| 20260831225600 | 71 | 342 | 7.0 | 16.0 | 0.00 | 0.00 | 0.00 | 61 | 1013.2 |
| 20260831225058 | 71 | 5 | 6.0 | 14.0 | 0.00 | 0.00 | 0.00 | 61 | 1013.4 |
| 20260831224603 | 71 | 342 | 5.0 | 14.0 | 0.00 | 0.00 | 0.00 | 62 | 1013.4 |
| 20260831224056 | 71 | 342 | 7.0 | 14.0 | 0.00 | 0.00 | 0.00 | 61 | 1013.4 |
| 20260831223558 | 72 | 348 | 7.0 | 13.0 | 0.00 | 0.00 | 0.00 | 61 | 1013.5 |
| 20260831223103 | 72 | 326 | 5.0 | 14.0 | 0.00 | 0.00 | 0.00 | 61 | 1013.3 |
| 20260831222558 | 71 | 44 | 7.0 | 14.0 | 0.00 | 0.00 | 0.00 | 60 | 1013.4 |
| 20260831222058 | 72 | 310 | 7.0 | 14.0 | 0.00 | 0.00 | 0.00 | 60 | 1013.5 |
| 20260831221605 | 72 | 295 | 5.0 | 14.0 | 0.00 | 0.00 | 0.00 | 60 | 1013.6 |
| 20260831221058 | 72 | 360 | 5.0 | 15.0 | 0.00 | 0.00 | 0.00 | 61 | 1013.5 |
| 20260831220557 | 72 | 360 | 4.0 | 15.0 | 0.00 | 0.00 | 0.00 | 61 | 1013.4 |
| 20260831220129 | 71 | 58 | 7.0 | 15.0 | 0.00 | 0.00 | 0.00 | 61 | 1013.6 |
| 20260831215600 | 72 | 326 | 6.0 | 15.0 | 0.00 | 0.00 | 0.00 | 60 | 1013.7 |
| 20260831215057 | 72 | 5 | 6.0 | 15.0 | 0.00 | 0.00 | 0.00 | 60 | 1013.7 |
| 20260831214603 | 72 | 315 | 5.0 | 15.0 | 0.00 | 0.00 | 0.00 | 61 | 1013.8 |
| 20260831214056 | 72 | 45 | 7.0 | 16.0 | 0.00 | 0.00 | 0.00 | 60 | 1013.7 |
| 20260831213656 | 72 | 338 | 7.0 | 16.0 | 0.00 | 0.00 | 0.00 | 60 | 1013.7 |
| 20260831213600 | 72 | 338 | 7.0 | 16.0 | 0.00 | 0.00 | 0.00 | 60 | 1013.7 |
| 20260831213118 | 73 | 326 | 5.0 | 14.0 | 0.00 | 0.00 | 0.00 | 59 | 1013.9 |
| 20260831212558 | 74 | 26 | 6.0 | 14.0 | 0.00 | 0.00 | 0.00 | 57 | 1014.0 |
| 20260831212101 | 74 | 19 | 1.0 | 12.0 | 0.00 | 0.00 | 0.00 | 58 | 1014.1 |
| 20260831211614 | 73 | 352 | 5.0 | 12.0 | 0.00 | 0.00 | 0.00 | 59 | 1014.0 |
| 20260831211119 | 73 | 352 | 4.0 | 10.0 | 0.00 | 0.00 | 0.00 | 59 | 1014.0 |
| 20260831210556 | 73 | 9 | 2.0 | 11.0 | 0.00 | 0.00 | 0.00 | 61 | 1014.0 |
| 20260831210106 | 72 | 50 | 5.0 | 11.0 | 0.00 | 0.00 | 0.00 | 60 | 1014.0 |
| 20260831205556 | 72 | 43 | 4.0 | 9.0 | 0.00 | 0.00 | 0.00 | 60 | 1014.1 |
| 20260831205058 | 72 | 352 | 3.0 | 12.0 | 0.00 | 0.00 | 0.00 | 61 | 1014.1 |
| 20260831204602 | 73 | 284 | 5.0 | 12.0 | 0.00 | 0.00 | 0.00 | 59 | 1014.2 |
| 20260831204058 | 72 | 0 | 3.0 | 13.0 | 0.00 | 0.00 | 0.00 | 61 | 1014.2 |
| 20260831203559 | 72 | 78 | 5.0 | 13.0 | 0.00 | 0.00 | 0.00 | 61 | 1014.2 |
| 20260831203112 | 72 | 60 | 4.0 | 11.0 | 0.00 | 0.00 | 0.00 | 60 | 1014.3 |
| 20260831202600 | 71 | 0 | 3.0 | 10.0 | 0.00 | 0.00 | 0.00 | 61 | 1014.3 |
| 20260831202058 | 71 | 339 | 4.0 | 10.0 | 0.00 | 0.00 | 0.00 | 61 | 1014.3 |
| 20260831201604 | 72 | 60 | 4.0 | 10.0 | 0.00 | 0.00 | 0.00 | 60 | 1014.3 |
| 20260831201057 | 72 | 20 | 3.0 | 8.0 | 0.00 | 0.00 | 0.00 | 61 | 1014.3 |
| 20260831200558 | 72 | 17 | 3.0 | 8.0 | 0.00 | 0.00 | 0.00 | 60 | 1014.3 |
| 20260831200142 | 71 | 293 | 2.0 | 8.0 | 0.00 | 0.00 | 0.00 | 59 | 1014.4 |
| 20260831195556 | 71 | 297 | 3.0 | 8.0 | 0.00 | 0.00 | 0.00 | 61 | 1014.4 |
| 20260831195057 | 71 | 313 | 1.0 | 8.0 | 0.00 | 0.00 | 0.00 | 60 | 1014.4 |
| 20260831194604 | 71 | 275 | 2.0 | 9.0 | 0.00 | 0.00 | 0.00 | 60 | 1014.5 |
| 20260831194057 | 71 | 273 | 2.0 | 9.0 | 0.00 | 0.00 | 0.00 | 61 | 1014.4 |
| 20260831193559 | 71 | 243 | 1.0 | 7.0 | 0.00 | 0.00 | 0.00 | 61 | 1014.5 |
| 20260831193100 | 71 | 312 | 2.0 | 7.0 | 0.00 | 0.00 | 0.00 | 61 | 1014.6 |
| 20260831192557 | 70 | 265 | 1.0 | 7.0 | 0.00 | 0.00 | 0.00 | 63 | 1014.6 |
| 20260831192058 | 69 | 127 | 2.0 | 7.0 | 0.00 | 0.00 | 0.00 | 63 | 1014.6 |
| 20260831191601 | 69 | 298 | 2.0 | 6.0 | 0.00 | 0.00 | 0.00 | 64 | 1014.6 |
| 20260831191100 | 69 | 0 | 1.0 | 7.0 | 0.00 | 0.00 | 0.00 | 63 | 1014.7 |
| 20260831190559 | 69 | 329 | 3.0 | 7.0 | 0.00 | 0.00 | 0.00 | 63 | 1014.6 |
| 20260831190112 | 68 | 342 | 2.0 | 8.0 | 0.00 | 0.00 | 0.00 | 64 | 1014.6 |
| 20260831185700 | 68 | 326 | 3.0 | 9.0 | 0.00 | 0.00 | 0.00 | 64 | 1014.5 |
| 20260831185557 | 68 | 326 | 3.0 | 9.0 | 0.00 | 0.00 | 0.00 | 64 | 1014.5 |
| 20260831185056 | 68 | 275 | 0.0 | 9.0 | 0.00 | 0.00 | 0.00 | 66 | 1014.6 |
| 20260831184606 | 68 | 5 | 2.0 | 9.0 | 0.00 | 0.00 | 0.00 | 65 | 1014.7 |
| 20260831184057 | 68 | 278 | 0.0 | 7.0 | 0.00 | 0.00 | 0.00 | 67 | 1014.7 |
| 20260831183557 | 68 | 267 | 1.0 | 5.0 | 0.00 | 0.00 | 0.00 | 67 | 1014.8 |
| 20260831183103 | 67 | 352 | 2.0 | 5.0 | 0.00 | 0.00 | 0.00 | 66 | 1014.9 |
| 20260831182557 | 67 | 351 | 1.0 | 5.0 | 0.00 | 0.00 | 0.00 | 66 | 1015.0 |
| 20260831182152 | 67 | 0 | 2.0 | 6.0 | 0.00 | 0.00 | 0.00 | 67 | 1015.0 |
| 20260831182058 | 67 | 0 | 2.0 | 6.0 | 0.00 | 0.00 | 0.00 | 67 | 1015.0 |
| 20260831181653 | 66 | 281 | 2.0 | 8.0 | 0.00 | 0.00 | 0.00 | 68 | 1014.9 |
| 20260831181606 | 66 | 281 | 2.0 | 8.0 | 0.00 | 0.00 | 0.00 | 68 | 1014.9 |
| 20260831181139 | 66 | 265 | 3.0 | 8.0 | 0.00 | 0.00 | 0.00 | 68 | 1014.8 |
| 20260831181059 | 66 | 265 | 3.0 | 8.0 | 0.00 | 0.00 | 0.00 | 68 | 1014.8 |
| 20260831180713 | 66 | 352 | 3.0 | 7.0 | 0.00 | 0.00 | 0.00 | 69 | 1014.9 |
| 20260831180556 | 66 | 352 | 3.0 | 7.0 | 0.00 | 0.00 | 0.00 | 69 | 1014.9 |
| 20260831180149 | 66 | 306 | 3.0 | 7.0 | 0.00 | 0.00 | 0.00 | 68 | 1015.0 |
| 20260831180110 | 66 | 306 | 3.0 | 7.0 | 0.00 | 0.00 | 0.00 | 68 | 1015.0 |
| 20260831175705 | 66 | 262 | 3.0 | 7.0 | 0.00 | 0.00 | 0.00 | 69 | 1014.8 |
| 20260831175557 | 66 | 262 | 3.0 | 7.0 | 0.00 | 0.00 | 0.00 | 69 | 1014.8 |
| 20260831175128 | 66 | 0 | 1.0 | 7.0 | 0.00 | 0.00 | 0.00 | 69 | 1014.8 |
| 20260831175058 | 66 | 0 | 1.0 | 7.0 | 0.00 | 0.00 | 0.00 | 69 | 1014.8 |
| 20260831174608 | 65 | 0 | 2.0 | 8.0 | 0.00 | 0.00 | 0.00 | 70 | 1014.8 |
| 20260831174059 | 65 | 0 | 3.0 | 8.0 | 0.00 | 0.00 | 0.00 | 70 | 1014.7 |
| 20260831173557 | 65 | 267 | 1.0 | 4.0 | 0.00 | 0.00 | 0.00 | 71 | 1014.9 |
| 20260831173105 | 64 | 211 | 0.0 | 2.0 | 0.00 | 0.00 | 0.00 | 71 | 1015.0 |
| 20260831172558 | 64 | 0 | 0.0 | 4.0 | 0.00 | 0.00 | 0.00 | 71 | 1015.1 |
| 20260831172100 | 64 | 0 | 1.0 | 4.0 | 0.00 | 0.00 | 0.00 | 71 | 1015.0 |
| 20260831171606 | 64 | 54 | 0.0 | 4.0 | 0.00 | 0.00 | 0.00 | 71 | 1015.1 |
| 20260831171057 | 63 | 0 | 1.0 | 4.0 | 0.00 | 0.00 | 0.00 | 71 | 1015.0 |
| 20260831170557 | 63 | 0 | 0.0 | 2.0 | 0.00 | 0.00 | 0.00 | 74 | 1015.0 |
| 20260831170123 | 62 | 122 | 0.0 | 2.0 | 0.00 | 0.00 | 0.00 | 75 | 1015.0 |
| 20260831165556 | 61 | 0 | 0.0 | 1.0 | 0.00 | 0.00 | 0.00 | 77 | 1014.9 |
| 20260831165219 | 61 | 0 | 0.0 | 3.0 | 0.00 | 0.00 | 0.00 | 77 | 1014.7 |
| 20260831165057 | 61 | 0 | 0.0 | 3.0 | 0.00 | 0.00 | 0.00 | 77 | 1014.7 |
| 20260831164627 | 61 | 0 | 0.0 | 3.0 | 0.00 | 0.00 | 0.00 | 77 | 1014.7 |
| 20260831164128 | 61 | 242 | 0.0 | 3.0 | 0.00 | 0.00 | 0.00 | 78 | 1014.6 |
| 20260831164057 | 61 | 242 | 0.0 | 3.0 | 0.00 | 0.00 | 0.00 | 78 | 1014.6 |
| 20260831163649 | 61 | 0 | 0.0 | 4.0 | 0.00 | 0.00 | 0.00 | 79 | 1014.6 |
| 20260831163558 | 61 | 0 | 0.0 | 4.0 | 0.00 | 0.00 | 0.00 | 79 | 1014.6 |
| 20260831163103 | 61 | 132 | 0.0 | 4.0 | 0.00 | 0.00 | 0.00 | 79 | 1014.6 |
| 20260831162602 | 60 | 0 | 0.0 | 0.0 | 0.00 | 0.00 | 0.00 | 80 | 1014.6 |
| 20260831162102 | 60 | 0 | 0.0 | 0.0 | 0.00 | 0.00 | 0.00 | 80 | 1014.6 |